Regional Weather Roundup
Issued by NWS

Home | Current Version | Previous Version | Graphics & Text | Print | Product List | Glossary On
Versions: 1 2 3 4 5 6 7 8 9 10 11 12 13 14 15 16 17 18 19 20 21 22 23 24 25 26 27 28 29 30 31 32 33 34 35 36 37 38 39 40 41 42 43 44 45 46 47 48 49 50
000
ASUS43 KIND 262109
RWRIN

WEATHER ROUNDUP FOR INDIANA
NATIONAL WEATHER SERVICE INDIANAPOLIS IN
400 PM EST THU FEB 26 2015

NOTE: "FAIR" INDICATES FEW OR NO CLOUDS BELOW 12,000 FEET WITH NO
SIGNIFICANT WEATHER AND/OR OBSTRUCTIONS TO VISIBILITY.

* - STATION DOES NOT REPORT WEATHER SUCH AS PRECIPITATION OR FOG.

+ - STATION NOT QUALITY CONTROLLED BY THE NATIONAL WEATHER SERVICE.
    USE DATA WITH CAUTION...ESPECIALLY DEWPOINT AND RELATIVE
    HUMIDITY OBSERVATIONS.

INZ001>003-010>013-019-020-262200-
NORTHWEST INDIANA

CITY           SKY/WX    TMP DP  RH WIND       PRES   REMARKS
GARY /AIRPORT/ LGT SNOW  19   7  58 N12G23    30.26R WCI   7
KNOX *+          N/A     16  -8  35 N13       30.23R WCI   2
LA PORTE +     MOSUNNY   17   7  63 N14       30.23R WCI   3
MICHIGAN CITY+ LGT SNOW  16   3  57 N9        30.25R WCI   4
MONTICELLO +   CLOUDY    17  10  72 N14G20    30.21R WCI   3
RENSSELAER +   PTSUNNY   19  10  68 N14       30.24R WCI   6
VALPARAISO     CLOUDY    15   6  67 N10       30.23R WCI   2

$$

LMZ046-743>745-262200-
SOUTHERN LAKE MICHIGAN

STATION/POSITION TIME  TEMP WIND        PRES
                       AIR  DIR/SP/G
                 (UTC) (F)  (DEG/KT/KT) (MB)
MICHIGAN CITY    2100   15  360/ 15/ 18   N/A

$$

INZ004-005-014>016-021>024-262200-
NORTH CENTRAL INDIANA

CITY           SKY/WX    TMP DP  RH WIND       PRES   REMARKS
ELKHART        PTSUNNY   18   0  45 NW9       30.21R WCI   6
GOSHEN         CLOUDY    17   5  59 N12       30.19R WCI   4
LOGANSPORT +   LGT SNOW  18  12  79 N9        30.22R WCI   6
PERU/GRISSOM   FLURRIES  18   8  64 N10       30.19R WCI   6
ROCHESTER +    PTSUNNY   21  10  63 NW12      30.20R WCI   9
SOUTH BEND     MOSUNNY   16  -2  45 NW18      30.22R WCI   0
WARSAW +       CLOUDY    18   9  68 NW8       30.19R WCI   7

$$

INZ006>009-017-018-025>027-262200-
NORTHEAST INDIANA

CITY           SKY/WX    TMP DP  RH WIND       PRES   REMARKS
ANGOLA *+      CLOUDY    12   3  67 N8        30.17R WCI   1
AUBURN +       MOSUNNY   19   5  53 N7        30.18R WCI  10
FORT WAYNE     CLOUDY    17   7  64 NW7       30.18R WCI   8
HUNTINGTON +   CLOUDY    17   4  56 N5        30.18R WCI  10

$$

INZ028-029-035-036-043>045-051>053-262200-
WEST CENTRAL INDIANA

CITY           SKY/WX    TMP DP  RH WIND       PRES   REMARKS
CRAWFORDSVL +  LGT SNOW  17   7  64 N10       30.20R WCI   5
GREENCASTLE +  CLOUDY    21   9  58 N12       30.19R WCI   9
LAFAYETTE      LGT SNOW  18  12  77 N12G21    30.23R WCI   5
TERRE HAUTE    LGT SNOW  22  14  71 N12       30.21R WCI  10

$$

INZ030>032-037>040-046>048-054>057-064-065-262200-
CENTRAL INDIANA

CITY           SKY/WX    TMP DP  RH WIND       PRES   REMARKS
ANDERSON       CLOUDY    18   5  57 N12       30.17R WCI   5
CP ATTERBURY + CLOUDY    23  12  63 N10       30.17R WCI  12
COLUMBUS       CLOUDY    19   9  63 N14       30.18R WCI   6
FRANKFORT +    MOSUNNY   20  12  70 N8        30.21R WCI  10
GREENWOOD *+   PTSUNNY   19   5  53 N10       30.17R WCI   8
INDIANAPOLIS   CLOUDY    20   9  62 N14       30.17R WCI   7
-EAGLE CREEK   CLOUDY    19   8  62 N13       30.18R WCI   6
KOKOMO *+      MOSUNNY   19  10  68 N8        30.20R WCI   9
MARION +       CLOUDY    17   6  60 N9        30.18R WCI   6
MT COMFORT *+  MOSUNNY   19   3  49 N14       30.17R WCI   6
SHELBYVILLE    CLOUDY    20   9  62 N14       30.16R WCI   7
ZIONSVILLE +   PTSUNNY   19   7  59 N9        30.18R WCI   8

$$

INZ033-034-041-042-049-050-058-059-262200-
EAST CENTRAL INDIANA

CITY           SKY/WX    TMP DP  RH WIND       PRES   REMARKS
MUNCIE         PTSUNNY   15   6  67 N15       30.16R WCI   0

$$

INZ060-061-067>069-081>083-085>088-262200-
SOUTHWEST INDIANA

CITY           SKY/WX    TMP DP  RH WIND       PRES   REMARKS
EVANSVILLE     LGT SNOW  28  19  69 N9        30.20R WCI  19
HUNTINGBURG *+ MOSUNNY   27  16  63 NW16G22   30.17R WCI  14
WASHINGTON +   CLOUDY    25  10  51 N15       30.19R WCI  13

$$

INZ062-063-066-070>080-084-089>092-262200-
SOUTH CENTRAL AND SOUTHEAST INDIANA

CITY           SKY/WX    TMP DP  RH WIND       PRES   REMARKS
BLOOMINGTON    CLOUDY    21  10  62 N14       30.16R WCI   8
NORTH VERNON + PTSUNNY   19  10  68 N9        30.15R WCI   9
SEYMOUR +      CLOUDY    23  10  58 N13       30.17R WCI  11

$$



USA.gov is the U.S. government's official web portal to all federal, state and local government web resources and services.